GW2457 Weather Reports


time (UTC)temp
C
wind
direction
speed
KPH
gust
KPH
rain 1hr
cm
rain 24hr
cm
rain mn
cm
humidity
%
barometer
mb
20260906234611 33 209 4.8 11.3 0.00 0.00 0.00 20 1018.5
20260906233103 32 290 3.2 12.9 0.00 0.00 0.00 20 1018.6
20260906231605 33 192 3.2 9.7 0.00 0.00 0.00 20 1018.7
20260906230106 33 236 8.0 14.5 0.00 0.00 0.00 19 1018.6
20260906224603 33 265 4.8 9.7 0.00 0.00 0.00 20 1018.5
20260906223058 33 150 6.4 12.9 0.00 0.00 0.00 20 1018.7
20260906221602 32 245 9.7 24.1 0.00 0.00 0.00 20 1018.7
20260906214556 33 254 1.6 16.1 0.00 0.00 0.00 19 1019.3
20260906213058 32 202 8.0 17.7 0.00 0.00 0.00 19 1019.8
20260906211603 32 350 4.8 16.1 0.00 0.00 0.00 19 1020.0
20260906210106 31 350 3.2 12.9 0.00 0.00 0.00 19 1020.2
20260906204607 31 319 3.2 9.7 0.00 0.00 0.00 20 1020.3
20260906203105 31 334 1.6 12.9 0.00 0.00 0.00 20 1020.5
20260906201605 32 287 3.2 9.7 0.00 0.00 0.00 19 1020.8
20260906200107 32 211 3.2 11.3 0.00 0.00 0.00 19 1020.7
20260906194607 32 202 4.8 12.9 0.00 0.00 0.00 19 1020.9
20260906193103 31 229 4.8 14.5 0.00 0.00 0.00 20 1021.0
20260906191615 31 271 3.2 17.7 0.00 0.00 0.00 21 1021.3
20260906190059 31 207 3.2 6.4 0.00 0.00 0.00 21 1021.5
20260906184603 30 295 8.0 16.1 0.00 0.00 0.00 22 1021.7
20260906183107 31 250 4.8 12.9 0.00 0.00 0.00 23 1022.0
20260906181600 31 166 4.8 11.3 0.00 0.00 0.00 22 1022.2
20260906180116 30 252 1.6 6.4 0.00 0.00 0.00 24 1022.5
20260906174559 30 47 3.2 12.9 0.00 0.00 0.00 25 1022.8
20260906173106 29 266 1.6 9.7 0.00 0.00 0.00 28 1023.0
20260906171605 29 232 3.2 6.4 0.00 0.00 0.00 27 1023.1
20260906170123 29 0 1.6 4.8 0.00 0.00 0.00 31 1023.1
20260906164602 28 0 0.0 0.0 0.00 0.00 0.00 29 1023.3
20260906163115 27 0 0.0 0.0 0.00 0.00 0.00 32 1023.4
20260906161603 26 0 0.0 0.0 0.00 0.00 0.00 36 1023.4
20260906160058 25 0 0.0 0.0 0.00 0.00 0.00 35 1023.1
20260906154600 25 0 0.0 0.0 0.00 0.00 0.00 37 1023.2
20260906153100 25 0 0.0 1.6 0.00 0.00 0.00 37 1023.3
20260906151605 25 0 0.0 1.6 0.00 0.00 0.00 36 1023.1
20260906150111 24 322 0.0 3.2 0.00 0.00 0.00 38 1023.1
20260906144603 22 0 1.6 4.8 0.00 0.00 0.00 41 1023.1
20260906143101 23 0 0.0 0.0 0.00 0.00 0.00 38 1023.0
20260906141600 21 0 0.0 1.6 0.00 0.00 0.00 44 1022.7
20260906140108 20 146 0.0 4.8 0.00 0.00 0.00 47 1022.6
20260906134601 19 95 0.0 0.0 0.00 0.00 0.00 48 1022.4
20260906133133 19 0 0.0 1.6 0.00 0.00 0.00 45 1022.3
20260906131611 20 19 0.0 4.8 0.00 0.00 0.00 42 1022.4
20260906130115 19 43 1.6 6.4 0.00 0.00 0.00 43 1022.2
20260906124601 19 0 0.0 0.0 0.00 0.00 0.00 45 1022.1
20260906123104 19 0 0.0 0.0 0.00 0.00 0.00 44 1022.2
20260906121601 20 0 0.0 0.0 0.00 0.00 0.00 41 1021.9
20260906120105 20 0 0.0 3.2 0.00 0.00 0.00 41 1021.8
20260906114601 20 0 0.0 1.6 0.00 0.00 0.00 43 1022.0
20260906113101 20 0 0.0 3.2 0.00 0.00 0.00 41 1022.0
20260906111617 21 0 1.6 3.2 0.00 0.00 0.00 41 1021.9
20260906104604 21 0 0.0 1.6 0.00 0.00 0.00 40 1022.0
20260906103104 21 144 0.0 3.2 0.00 0.00 0.00 40 1021.9
20260906101601 22 0 0.0 3.2 0.00 0.00 0.00 38 1022.0
20260906100058 22 15 3.2 6.4 0.00 0.00 0.00 36 1021.7
20260906094600 22 332 0.0 4.8 0.00 0.00 0.00 36 1021.7
20260906093057 22 0 0.0 0.0 0.00 0.00 0.00 37 1021.6
20260906091602 22 0 0.0 3.2 0.00 0.00 0.00 37 1021.4
20260906090107 22 0 0.0 0.0 0.00 0.00 0.00 38 1021.4
20260906084613 22 84 1.6 1.6 0.00 0.00 0.00 39 1021.4
20260906083100 21 0 0.0 3.2 0.00 0.00 0.00 39 1021.6
20260906081603 21 96 1.6 3.2 0.00 0.00 0.00 40 1021.6
20260906080107 21 84 1.6 3.2 0.00 0.00 0.00 40 1021.8
20260906074602 21 86 1.6 3.2 0.00 0.00 0.00 41 1022.0
20260906073059 21 86 0.0 3.2 0.00 0.00 0.00 41 1022.0
20260906071602 21 67 0.0 3.2 0.00 0.00 0.00 40 1022.0
20260906070103 22 80 0.0 3.2 0.00 0.00 0.00 38 1022.0
20260906064557 22 0 0.0 4.8 0.00 0.00 0.00 38 1022.0
20260906063057 22 0 0.0 0.0 0.00 0.00 0.00 38 1022.0
20260906061604 22 0 0.0 0.0 0.00 0.00 0.00 37 1022.0
20260906054607 25 0 0.0 4.8 0.00 0.00 0.00 32 1021.7
20260906053103 25 13 3.2 4.8 0.00 0.00 0.00 32 1021.7
20260906051612 25 48 3.2 6.4 0.00 0.00 0.00 32 1021.6
20260906050104 25 59 3.2 6.4 0.00 0.00 0.00 31 1021.6
20260906044607 25 40 3.2 9.7 0.00 0.00 0.00 31 1021.6
20260906043100 25 38 4.8 8.0 0.00 0.00 0.00 32 1021.6
20260906041601 25 38 3.2 8.0 0.00 0.00 0.00 31 1021.6
20260906040139 25 13 3.2 6.4 0.00 0.00 0.00 31 1021.9
20260906034611 25 46 1.6 6.4 0.00 0.00 0.00 33 1021.9
20260906033106 25 65 1.6 4.8 0.00 0.00 0.00 32 1021.8
20260906031605 25 347 1.6 6.4 0.00 0.00 0.00 33 1021.6
20260906030104 25 14 0.0 3.2 0.00 0.00 0.00 33 1021.3
20260906024614 26 33 0.0 3.2 0.00 0.00 0.00 33 1021.1
20260906023104 26 35 0.0 4.8 0.00 0.00 0.00 33 1021.0
20260906021603 26 28 1.6 3.2 0.00 0.00 0.00 33 1020.9
20260906020106 26 60 1.6 1.6 0.00 0.00 0.00 33 1020.7
20260906014600 27 348 1.6 4.8 0.00 0.00 0.00 31 1020.7
20260906013114 28 315 1.6 6.4 0.00 0.00 0.00 31 1020.6
20260906011602 28 322 3.2 8.0 0.00 0.00 0.00 30 1020.6
20260906010104 29 279 3.2 11.3 0.00 0.00 0.00 29 1020.6
20260906004604 29 298 6.4 12.9 0.00 0.00 0.00 29 1020.6
20260906003104 29 310 3.2 12.9 0.00 0.00 0.00 29 1020.6
20260906001610 30 298 4.8 8.0 0.00 0.00 0.00 29 1020.5